This demonstration page uses our WeatherBlox Daily Observations layout. Learn more.

Left ArrowRight Arrow

Hourly Observations for June 8, 2018

Temp ( °F °C ) Dew Point ( °F °C ) Humidity (%) Winds ( mph kmh ) Pressure ( in mb ) Visibility ( mi km ) Precip ( " mm )
12:53 am 00:53 Clear 70 21.1 65 18.3 84 84 S 3 6 30.07 1018 10 16 0.00 0.03
1:53 am 01:53 Clear 70 21.1 65 18.3 84 84 Calm 30.06 1018 10 16 0.00 0.00
2:53 am 02:53 Clear 69 20.6 65 18.3 87 87 Calm 30.07 1018 10 16 0.00 0.00
3:53 am 03:53 Clear 68 20 65 18.3 90 90 Calm 30.08 1019 10 16 0.00 0.00
4:53 am 04:53 Clear 67 19.4 66 18.9 97 97 Calm 30.09 1019 10 16 0.00 0.00
5:53 am 05:53 Clear 67 19.4 66 18.9 97 97 Calm 30.10 1019 10 16 0.00 0.00
6:53 am 06:53 Sunny 69 20.6 67 19.4 93 93 Calm 30.12 1020 10 16 0.00 0.00
7:53 am 07:53 Sunny 72 22.2 68 20 87 87 Calm 30.14 1021 10 16 0.00 0.00
8:53 am 08:53 Sunny 76 24.4 69 20.6 79 79 Calm 30.15 1021 10 16 0.00 0.00
9:53 am 09:53 Sunny 80 26.7 68 20 67 67 W 6 9 30.15 1021 10 16 0.00 0.00
10:53 am 10:53 Mostly Sunny 82 27.8 67 19.4 60 60 W 8 13 30.14 1021 10 16 0.00 0.03
11:53 am 11:53 Sunny 83 28.3 69 20.6 63 63 W 5 7 30.14 1021 10 16 0.00 0.03
12:53 pm 12:53 Mostly Sunny 85 29.4 71 21.7 63 63 W 5 7 30.14 1021 10 16 0.00 0.03
1:53 pm 13:53 Partly Cloudy 86 30 70 21.1 59 59 VRB 3 6 30.12 1020 10 16 0.00 0.03
2:53 pm 14:53 Mostly Cloudy 87 30.6 73 22.8 63 63 Calm 30.11 1020 10 16 0.00 0.00
3:53 pm 15:53 Sunny 88 31.1 72 22.2 59 59 SW 7 11 30.08 1019 10 16 0.00 0.03
4:11 pm 16:11 Partly Cloudy with Nearby Thunderstorms 88 31.1 73 22.8 61 61 SSW 6 9 30.03 1017 10 16 0.00 0.00
4:26 pm 16:26 Sunny 88 31.1 73 22.8 61 61 SSW 7 11 30.03 1017 10 16 0.00 0.00
4:53 pm 16:53 Sunny with Thunderstorms 87 30.6 71 21.7 59 59 Calm 30.07 1018 10 16 0.00 0.00
5:40 pm 17:40 Mostly Cloudy with Thunderstorms 75 23.9 68 20 79 79 W 12 19 30.09 1019 2 3 0.02 0.51
5:50 pm 17:50 Mostly Cloudy with Thunderstorms 75 24 68 20 78 78 W 6 9 30.09 1019 6 10 0.03 0.76
5:53 pm 17:53 Mostly Cloudy with Thunderstorms 74 23.3 69 20.6 85 85 undefined N/A 30.11 1020 9 14 0.03 0.76
6:23 pm 18:23 Mostly Cloudy with Nearby Thunderstorms 72 22.2 68 20 87 87 S 7 11 30.09 1019 4 6 0.02 0.51
6:26 pm 18:26 Mostly Cloudy with Strong Thunderstorms 71 21.7 69 20.6 94 94 VRB 7 11 30.12 1020 3 4 0.04 1.02
6:39 pm 18:39 Cloudy with Thunderstorms 73 22.8 68 20 84 84 E 14 22 30.09 1019 7 11 0.07 1.78
6:53 pm 18:53 Mostly Cloudy with Thunderstorms 72 22.2 69 20.6 91 91 E 16 26 30.11 1020 10 16 0.07 1.78
7:07 pm 19:07 Mostly Cloudy with Nearby Thunderstorms 73 22.8 71 21.7 94 94 ESE 7 11 30.09 1019 10 16 0.00 0.03
7:18 pm 19:18 Cloudy 73 22.8 69 20.6 87 87 ESE 8 13 30.12 1020 10 16 0.00 0.03
7:25 pm 19:25 Cloudy with Nearby Thunderstorms 72 22.2 69 20.6 91 91 E 12 19 30.12 1020 10 16 0.00 0.03
7:42 pm 19:42 Cloudy with Light Rain 71 21.7 70 21.1 96 96 VRB 3 6 30.12 1020 4 6 0.05 1.27
7:51 pm 19:51 Cloudy with Thunderstorms 72 22 70 21 94 94 ESE 10 17 30.15 1021 10 16 0.05 1.27
7:53 pm 19:53 Cloudy with Thunderstorms 71 21.7 69 20.6 94 94 E 14 22 30.15 1021 10 16 0.05 1.27
8:26 pm 20:26 Mostly Cloudy with Nearby Thunderstorms 70 21.1 68 20 93 93 E 13 20 30.12 1020 10 16 0.00 0.03
8:53 pm 20:53 Mostly Cloudy 69 20.6 68 20 96 96 E 8 13 30.15 1021 10 16 0.00 0.03
9:53 pm 21:53 Mostly Cloudy 70 21.1 67 19.4 90 90 Calm 30.16 1021 10 16 0.00 0.00
10:53 pm 22:53 Clear 68 20 66 18.9 93 93 Calm 30.17 1022 10 16 0.00 0.00
11:53 pm 23:53 Clear 67 19.4 66 18.9 97 97 Calm 30.15 1021 10 16 0.00 0.00

Powered by AerisWeather